Time,TemperatureF,DewpointF,PressureIn,WindDirection,WindDirectionDegrees,WindSpeedMPH,WindSpeedGustMPH,Humidity,HourlyPrecipIn,Conditions,Clouds,dailyrainin,SoftwareType,DateUTC
2013-02-10 00:05:00,69.6,62.1,30.04,NNW,337,1.7,-999.0,77,-99.99,,,0.00,Acu-Link.com,2013-02-10 10:05:00,
2013-02-10 00:20:00,69.4,62.6,30.04,NW,315,2.2,-999.0,79,-99.99,,,0.00,Acu-Link.com,2013-02-10 10:20:00,
2013-02-10 00:35:00,68.9,62.1,30.03,SSW,202,1.1,-999.0,79,-99.99,,,0.00,Acu-Link.com,2013-02-10 10:35:00,
2013-02-10 00:51:00,68.7,62.3,30.04,West,270,3.2,-999.0,80,-99.99,,,0.00,Acu-Link.com,2013-02-10 10:51:00,
2013-02-10 01:06:00,68.7,62.3,30.04,SSE,157,1.7,-999.0,80,-99.99,,,0.00,Acu-Link.com,2013-02-10 11:06:00,
2013-02-10 01:21:00,68.5,62.8,30.03,WNW,292,2.2,-999.0,82,-99.99,,,0.00,Acu-Link.com,2013-02-10 11:21:00,
2013-02-10 01:36:00,68.7,63.7,30.04,SSE,157,0.0,-999.0,84,-99.99,,,0.00,Acu-Link.com,2013-02-10 11:36:00,
2013-02-10 01:51:00,69.1,62.3,30.03,South,180,2.2,-999.0,79,-99.99,,,0.00,Acu-Link.com,2013-02-10 11:51:00,
2013-02-10 02:07:00,69.1,62.3,30.03,SE,135,0.0,-999.0,79,-99.99,,,0.00,Acu-Link.com,2013-02-10 12:07:00,
2013-02-10 02:22:00,69.3,62.1,30.04,SSE,157,0.0,-999.0,78,-99.99,,,0.00,Acu-Link.com,2013-02-10 12:22:00,
2013-02-10 02:37:00,69.3,62.5,30.04,East,90,4.2,-999.0,79,-99.99,,,0.00,Acu-Link.com,2013-02-10 12:37:00,
2013-02-10 02:53:00,69.3,62.1,30.01,WSW,247,4.7,-999.0,78,-99.99,,,0.00,Acu-Link.com,2013-02-10 12:53:00,
2013-02-10 03:08:00,69.3,62.5,30.03,WSW,247,2.2,-999.0,79,-99.99,,,0.00,Acu-Link.com,2013-02-10 13:08:00,
2013-02-10 03:23:00,69.1,60.5,30.01,WNW,292,2.7,-999.0,74,-99.99,,,0.00,Acu-Link.com,2013-02-10 13:23:00,
2013-02-10 03:39:00,69.3,60.6,30.01,SW,225,1.1,-999.0,74,-99.99,,,0.00,Acu-Link.com,2013-02-10 13:39:00,
2013-02-10 03:54:00,68.9,61.0,30.02,SSW,202,0.0,-999.0,76,-99.99,,,0.00,Acu-Link.com,2013-02-10 13:54:00,
2013-02-10 04:09:00,68.7,61.2,30.02,SSW,202,1.1,-999.0,77,-99.99,,,0.00,Acu-Link.com,2013-02-10 14:09:00,
2013-02-10 04:24:00,68.7,60.4,30.03,NE,45,0.0,-999.0,75,-99.99,,,0.00,Acu-Link.com,2013-02-10 14:24:00,
2013-02-10 04:40:00,68.4,61.3,30.03,ENE,67,2.7,-999.0,78,-99.99,,,0.00,Acu-Link.com,2013-02-10 14:40:00,
2013-02-10 04:55:00,68.0,60.9,30.03,SW,225,1.1,-999.0,78,-99.99,,,0.00,Acu-Link.com,2013-02-10 14:55:00,
2013-02-10 05:10:00,67.6,61.2,30.04,WSW,247,2.2,-999.0,80,-99.99,,,0.00,Acu-Link.com,2013-02-10 15:10:00,
2013-02-10 05:26:00,67.5,61.5,30.04,SSW,202,0.0,-999.0,81,-99.99,,,0.00,Acu-Link.com,2013-02-10 15:26:00,
2013-02-10 05:41:00,67.8,61.0,30.04,SSW,202,0.0,-999.0,79,-99.99,,,0.00,Acu-Link.com,2013-02-10 15:41:00,
2013-02-10 05:56:00,68.0,60.9,30.04,NE,45,1.1,-999.0,78,-99.99,,,0.00,Acu-Link.com,2013-02-10 15:56:00,
2013-02-10 06:12:00,68.2,61.1,30.04,NNE,22,2.7,-999.0,78,-99.99,,,0.00,Acu-Link.com,2013-02-10 16:12:00,
2013-02-10 06:27:00,68.5,61.0,30.06,West,270,4.2,-999.0,77,-99.99,,,0.00,Acu-Link.com,2013-02-10 16:27:00,
2013-02-10 06:42:00,68.7,61.6,30.06,SE,135,0.0,-999.0,78,-99.99,,,0.00,Acu-Link.com,2013-02-10 16:42:00,
2013-02-10 06:57:00,68.7,61.6,30.08,ESE,112,0.0,-999.0,78,-99.99,,,0.00,Acu-Link.com,2013-02-10 16:57:00,
2013-02-10 07:13:00,68.7,61.9,30.07,ESE,112,0.0,-999.0,79,-99.99,,,0.00,Acu-Link.com,2013-02-10 17:13:00,
2013-02-10 07:28:00,68.9,62.8,30.08,South,180,1.1,-999.0,81,-99.99,,,0.00,Acu-Link.com,2013-02-10 17:28:00,
2013-02-10 07:43:00,68.9,62.8,30.10,SSW,202,0.0,-999.0,81,-99.99,,,0.00,Acu-Link.com,2013-02-10 17:43:00,
2013-02-10 07:58:00,69.3,62.9,30.11,SE,135,2.2,-999.0,80,-99.99,,,0.00,Acu-Link.com,2013-02-10 17:58:00,
2013-02-10 08:14:00,70.2,62.6,30.10,WSW,247,0.0,-999.0,77,-99.99,,,0.00,Acu-Link.com,2013-02-10 18:14:00,
2013-02-10 08:29:00,70.7,63.1,30.10,NNE,22,2.2,-999.0,77,-99.99,,,0.00,Acu-Link.com,2013-02-10 18:29:00,
2013-02-10 08:44:00,71.2,62.9,30.10,South,180,2.7,-999.0,75,-99.99,,,0.00,Acu-Link.com,2013-02-10 18:44:00,
2013-02-10 09:00:00,71.8,62.7,30.09,ENE,67,1.7,-999.0,73,-99.99,,,0.00,Acu-Link.com,2013-02-10 19:00:00,
2013-02-10 09:15:00,71.8,65.3,30.10,South,180,1.7,-999.0,80,-99.99,,,0.00,Acu-Link.com,2013-02-10 19:15:00,
2013-02-10 09:30:00,71.2,65.8,30.11,SW,225,1.7,-999.0,83,-99.99,,,0.00,Acu-Link.com,2013-02-10 19:30:00,
2013-02-10 09:46:00,70.9,66.2,30.12,SSE,157,0.0,-999.0,85,-99.99,,,0.00,Acu-Link.com,2013-02-10 19:46:00,
2013-02-10 10:01:00,70.7,67.0,30.11,South,180,2.7,-999.0,88,-99.99,,,0.00,Acu-Link.com,2013-02-10 20:01:00,
2013-02-10 10:16:00,70.3,65.6,30.12,ENE,67,0.0,-999.0,85,-99.99,,,0.00,Acu-Link.com,2013-02-10 20:16:00,
2013-02-10 10:31:00,70.7,66.0,30.12,NNE,22,2.2,-999.0,85,-99.99,,,0.00,Acu-Link.com,2013-02-10 20:31:00,
2013-02-10 10:47:00,70.9,66.2,30.11,ENE,67,4.2,-999.0,85,-99.99,,,0.00,Acu-Link.com,2013-02-10 20:47:00,
2013-02-10 15:17:00,79.3,66.5,29.98,South,180,1.1,-999.0,65,-99.99,,,0.00,Acu-Link.com,2013-02-11 01:17:00,
2013-02-10 15:33:00,76.6,65.2,29.99,SE,135,2.7,-999.0,68,-99.99,,,0.00,Acu-Link.com,2013-02-11 01:33:00,
2013-02-10 15:48:00,78.1,65.8,29.98,West,270,2.7,-999.0,66,-99.99,,,0.00,Acu-Link.com,2013-02-11 01:48:00,
2013-02-10 16:03:00,77.7,65.9,29.97,SE,135,2.2,-999.0,67,-99.99,,,0.00,Acu-Link.com,2013-02-11 02:03:00,
2013-02-10 16:19:00,78.1,65.8,29.97,SSW,202,1.7,-999.0,66,-99.99,,,0.00,Acu-Link.com,2013-02-11 02:19:00,
2013-02-10 16:34:00,77.4,64.7,29.99,West,270,1.7,-999.0,65,-99.99,,,0.00,Acu-Link.com,2013-02-11 02:34:00,
2013-02-10 16:49:00,77.4,65.1,29.96,West,270,2.7,-999.0,66,-99.99,,,0.00,Acu-Link.com,2013-02-11 02:49:00,
2013-02-10 17:04:00,79.0,65.3,29.99,West,270,0.0,-999.0,63,-99.99,,,0.00,Acu-Link.com,2013-02-11 03:04:00,
2013-02-10 17:19:00,78.8,65.6,29.97,ENE,67,0.0,-999.0,64,-99.99,,,0.00,Acu-Link.com,2013-02-11 03:19:00,
2013-02-10 17:35:00,77.7,65.0,29.98,South,180,1.7,-999.0,65,-99.99,,,0.00,Acu-Link.com,2013-02-11 03:35:00,
2013-02-10 17:50:00,76.8,64.6,29.99,ENE,67,0.0,-999.0,66,-99.99,,,0.00,Acu-Link.com,2013-02-11 03:50:00,
2013-02-10 18:05:00,75.6,64.3,29.99,NNE,22,2.7,-999.0,68,-99.99,,,0.00,Acu-Link.com,2013-02-11 04:05:00,
2013-02-10 18:20:00,74.5,64.5,30.01,SSE,157,1.7,-999.0,71,-99.99,,,0.00,Acu-Link.com,2013-02-11 04:20:00,
2013-02-10 18:36:00,72.9,65.3,30.03,ENE,67,1.1,-999.0,77,-99.99,,,0.00,Acu-Link.com,2013-02-11 04:36:00,
2013-02-10 18:51:00,72.1,65.2,30.03,ESE,112,0.0,-999.0,79,-99.99,,,0.00,Acu-Link.com,2013-02-11 04:51:00,
2013-02-10 19:06:00,70.9,65.5,30.04,East,90,1.1,-999.0,83,-99.99,,,0.00,Acu-Link.com,2013-02-11 05:06:00,
2013-02-10 19:22:00,70.2,65.5,30.05,NNW,337,4.2,-999.0,85,-99.99,,,0.00,Acu-Link.com,2013-02-11 05:22:00,
2013-02-10 19:37:00,70.0,64.2,30.04,NW,315,1.7,-999.0,82,-99.99,,,0.00,Acu-Link.com,2013-02-11 05:37:00,
2013-02-10 19:52:00,70.0,64.2,30.05,NE,45,3.2,-999.0,82,-99.99,,,0.00,Acu-Link.com,2013-02-11 05:52:00,
2013-02-10 20:07:00,70.5,64.0,30.06,ENE,67,2.2,-999.0,80,-99.99,,,0.00,Acu-Link.com,2013-02-11 06:07:00,
2013-02-10 20:23:00,70.5,64.0,30.06,NE,45,2.2,-999.0,80,-99.99,,,0.00,Acu-Link.com,2013-02-11 06:23:00,
2013-02-10 20:38:00,70.7,63.1,30.07,SW,225,3.7,-999.0,77,-99.99,,,0.00,Acu-Link.com,2013-02-11 06:38:00,
2013-02-10 20:53:00,70.5,62.9,30.06,South,180,2.2,-999.0,77,-99.99,,,0.00,Acu-Link.com,2013-02-11 06:53:00,
2013-02-10 21:09:00,70.5,62.6,30.07,ENE,67,2.7,-999.0,76,-99.99,,,0.00,Acu-Link.com,2013-02-11 07:09:00,
2013-02-10 21:24:00,70.5,62.2,30.08,NW,315,2.7,-999.0,75,-99.99,,,0.00,Acu-Link.com,2013-02-11 07:24:00,
2013-02-10 21:39:00,70.9,62.6,30.08,North,0,1.7,-999.0,75,-99.99,,,0.00,Acu-Link.com,2013-02-11 07:39:00,
2013-02-10 21:55:00,70.7,63.1,30.10,NW,315,1.1,-999.0,77,-99.99,,,0.00,Acu-Link.com,2013-02-11 07:55:00,
2013-02-10 22:10:00,70.5,63.3,30.10,SE,135,1.1,-999.0,78,-99.99,,,0.00,Acu-Link.com,2013-02-11 08:10:00,
2013-02-10 22:25:00,70.7,63.9,30.10,WSW,247,1.1,-999.0,79,-99.99,,,0.00,Acu-Link.com,2013-02-11 08:25:00,
2013-02-10 22:40:00,70.7,63.9,30.10,WNW,292,3.7,-999.0,79,-99.99,,,0.00,Acu-Link.com,2013-02-11 08:40:00,
2013-02-10 22:56:00,70.3,63.8,30.11,East,90,1.7,-999.0,80,-99.99,,,0.00,Acu-Link.com,2013-02-11 08:56:00,
2013-02-10 23:16:00,70.3,63.8,30.10,SW,225,2.7,-999.0,80,-99.99,,,0.00,Acu-Link.com,2013-02-11 09:16:00,